Location: B�hl
(48.6968°N, 8.1352°E)
Time: 19:14:58
(UTC+00:00)

Okean-O - Pass Details

Date: 08 March 2021
Orbit: 639 x 640 km, 98.2° (Epoch: 14 April)

Event Time Altitude Azimuth Distance (km) Brightness Sun altitude
Rises 18:42:17 0° 184° (S) 2,933 6.0 -14.0°
Reaches altitude 10° 18:44:36 10° 192° (SSW) 2,029 5.2 -14.4°
Maximum altitude 18:48:45 39° 262° (W) 960 4.1 -15.0°
Drops below altitude 10° 18:52:56 10° 332° (NNW) 2,044 5.8 -15.7°
Sets 18:55:16 0° 340° (NNW) 2,958 6.5 -16.1°
